Station Historical Data
Daily Summary for January 23, 2017 Units:  Metric    English   Both
Next Day »
Daily Weekly Monthly Yearly Custom
  High: Low: Average:
Temperature: 1.9 °C 0.4 °C 0.8 °C
Dew Point: 1.4 °C -0.2 °C 0.2 °C
Humidity: 96% 95% 96%
Wind Speed: 11.3km/h 0km/h 0.3km/h
Wind Gust: 17.7km/h - -
Wind- - SE
Pressure: 1015.8 hPa 1007.3 hPa -
Precipitation: 0 mm    
Historical Graphs
 
 
Tabular Data for January 23, 2017
Time Temperature Dew Point Pressure Wind Wind Speed Wind Gust Humidity Rainfall Rate (Hourly) solar Conditions
00:01 0.6 °C 0.1 °C 1007.7 hPa Calm     96% 0 mm 0.00 W/m2
00:06 0.6 °C 0.1 °C 1007.3 hPa Calm     96% 0 mm 0.00 W/m2
00:11 0.6 °C 0.1 °C 1007.3 hPa SE 8 km/h 11.3 km/h 96% 0 mm 0.00 W/m2
00:16 0.6 °C 0.1 °C 1007.3 hPa Calm   11.3 km/h 96% 0 mm 0.00 W/m2
00:21 0.6 °C 0.1 °C 1007.3 hPa Calm   1.6 km/h 96% 0 mm 0.00 W/m2
00:26 0.6 °C 0.1 °C 1007.3 hPa Calm   1.6 km/h 96% 0 mm 0.00 W/m2
00:31 0.6 °C 0.1 °C 1007.3 hPa Calm   1.6 km/h 96% 0 mm 0.00 W/m2
00:36 0.7 °C 0.1 °C 1007.3 hPa SE 1.6 km/h 1.6 km/h 96% 0 mm 0.00 W/m2
00:41 0.6 °C 0.1 °C 1007.3 hPa Calm   1.6 km/h 96% 0 mm 0.00 W/m2
00:46 0.6 °C 0.1 °C 1007.3 hPa Calm   1.6 km/h 96% 0 mm 0.00 W/m2
00:51 0.6 °C 0.1 °C 1007.7 hPa Calm   1.6 km/h 96% 3.3 mm 0.00 W/m2
00:56 0.6 °C 0.1 °C 1007.3 hPa Calm   1.6 km/h 96% 3.56 mm 0.00 W/m2
01:01 0.6 °C 0.1 °C 1007.7 hPa Calm   1.6 km/h 96% 2.29 mm 0.00 W/m2
01:06 0.6 °C 0 °C 1007.7 hPa Calm   1.6 km/h 96% 4.57 mm 0.00 W/m2
01:11 0.6 °C 0 °C 1007.7 hPa Calm     96% 3.05 mm 0.00 W/m2
01:16 0.6 °C 0 °C 1007.7 hPa Calm     96% 2.29 mm 0.00 W/m2
01:21 0.6 °C -0.2 °C 1007.7 hPa Calm     95% 1.27 mm 0.00 W/m2
01:26 0.6 °C 0 °C 1007.7 hPa Calm     96% 1.02 mm 0.00 W/m2
01:31 0.6 °C 0 °C 1007.7 hPa Calm     96% 1.02 mm 0.00 W/m2
01:36 0.6 °C -0.2 °C 1007.7 hPa Calm     95% 1.02 mm 0.00 W/m2
01:41 0.6 °C -0.2 °C 1008 hPa Calm     95% 0 mm 0.00 W/m2
01:46 0.6 °C -0.2 °C 1008 hPa Calm     95% 0 mm 0.00 W/m2
01:51 0.6 °C -0.2 °C 1008 hPa Calm     95% 0 mm 0.00 W/m2
01:56 0.5 °C -0.2 °C 1008 hPa Calm     95% 0 mm 0.00 W/m2
02:01 0.5 °C -0.2 °C 1008 hPa Calm     95% 0 mm 0.00 W/m2
02:06 0.6 °C 0 °C 1008 hPa Calm     96% 0 mm 0.00 W/m2
02:11 0.6 °C -0.2 °C 1008 hPa Calm     95% 0 mm 0.00 W/m2
02:16 0.6 °C 0 °C 1008 hPa Calm     96% 0 mm 0.00 W/m2
02:21 0.6 °C 0 °C 1008 hPa Calm     96% 0 mm 0.00 W/m2
02:26 0.6 °C 0 °C 1008 hPa SSE 1.6 km/h 1.6 km/h 96% 0 mm 0.00 W/m2
02:31 0.6 °C 0 °C 1008 hPa Calm     96% 0 mm 0.00 W/m2
02:36 0.6 °C 0.1 °C 1008.4 hPa Calm     96% 0 mm 0.00 W/m2
02:41 0.6 °C 0 °C 1008.4 hPa Calm     96% 0 mm 0.00 W/m2
02:46 0.6 °C 0.1 °C 1008.4 hPa Calm     96% 0 mm 0.00 W/m2
02:51 0.6 °C 0.1 °C 1008.7 hPa Calm     96% 0 mm 0.00 W/m2
02:56 0.6 °C 0 °C 1008.4 hPa Calm     96% 0 mm 0.00 W/m2
02:57 0.6 °C 0 °C 1008.4 hPa Calm     96% 0 mm 0.00 W/m2
03:02 0.6 °C 0 °C 1008.7 hPa Calm     96% 0 mm 0.00 W/m2
03:07 0.6 °C 0 °C 1008.7 hPa Calm     96% 0 mm 0.00 W/m2
03:12 0.6 °C 0 °C 1008.7 hPa Calm     96% 0 mm 0.00 W/m2
03:17 0.6 °C 0 °C 1008.7 hPa Calm     96% 0 mm 0.00 W/m2
03:22 0.6 °C 0 °C 1008.7 hPa Calm     96% 0 mm 0.00 W/m2
03:27 0.6 °C 0 °C 1008.7 hPa Calm     96% 0 mm 0.00 W/m2
03:32 0.6 °C 0 °C 1008.7 hPa Calm     96% 0 mm 0.00 W/m2
03:37 0.6 °C 0 °C 1008.7 hPa Calm     96% 0 mm 0.00 W/m2
03:42 0.6 °C 0 °C 1008.7 hPa Calm     96% 0 mm 0.00 W/m2
03:47 0.6 °C 0 °C 1008.7 hPa Calm     96% 0 mm 0.00 W/m2
03:52 0.6 °C 0 °C 1009 hPa Calm     96% 0 mm 0.00 W/m2
03:57 0.6 °C 0 °C 1009 hPa Calm     96% 0 mm 0.00 W/m2
04:02 0.6 °C 0 °C 1009 hPa Calm     96% 0 mm 0.00 W/m2
04:07 0.6 °C 0 °C 1009 hPa Calm     96% 0 mm 0.00 W/m2
04:12 0.6 °C 0.1 °C 1009 hPa Calm     96% 0 mm 0.00 W/m2
04:17 0.6 °C 0.1 °C 1009 hPa Calm     96% 0 mm 0.00 W/m2
04:22 0.6 °C 0.1 °C 1009 hPa Calm     96% 0 mm 0.00 W/m2
04:27 0.6 °C 0.1 °C 1009 hPa Calm     96% 0 mm 0.00 W/m2
04:32 0.6 °C 0.1 °C 1009 hPa Calm     96% 0 mm 0.00 W/m2
04:37 0.6 °C 0.1 °C 1009 hPa Calm     96% 0 mm 0.00 W/m2
04:42 0.6 °C 0.1 °C 1009 hPa Calm     96% 0 mm 0.00 W/m2
04:47 0.6 °C 0.1 °C 1009 hPa Calm     96% 0 mm 0.00 W/m2
04:52 0.6 °C 0.1 °C 1009 hPa Calm     96% 0 mm 0.00 W/m2
04:57 0.6 °C 0.1 °C 1009 hPa Calm     96% 0 mm 0.00 W/m2
05:02 0.6 °C 0.1 °C 1009 hPa Calm     96% 0 mm 0.00 W/m2
05:07 0.6 °C 0.1 °C 1009.4 hPa Calm     96% 0 mm 0.00 W/m2
05:12 0.6 °C 0.1 °C 1009.4 hPa Calm     96% 0 mm 0.00 W/m2
05:17 0.6 °C 0.1 °C 1009.4 hPa Calm     96% 0 mm 0.00 W/m2
05:22 0.6 °C 0.1 °C 1009.4 hPa Calm     96% 0 mm 0.00 W/m2
05:27 0.6 °C 0.1 °C 1009.4 hPa Calm     96% 0 mm 0.00 W/m2
05:32 0.6 °C 0.1 °C 1009.4 hPa Calm     96% 0 mm 0.00 W/m2
05:37 0.6 °C 0.1 °C 1009.4 hPa Calm     96% 2.29 mm 0.00 W/m2
05:42 0.6 °C 0 °C 1009.7 hPa Calm     96% 1.52 mm 0.00 W/m2
05:47 0.6 °C 0 °C 1009.7 hPa Calm     96% 1.02 mm 0.00 W/m2
05:52 0.6 °C -0.2 °C 1009.7 hPa Calm     95% 1.02 mm 0.00 W/m2
05:57 0.6 °C -0.2 °C 1009.7 hPa Calm     95% 3.3 mm 0.00 W/m2
06:02 0.5 °C -0.2 °C 1009.7 hPa Calm     95% 1.78 mm 0.00 W/m2
06:07 0.5 °C -0.2 °C 1009.7 hPa Calm     95% 1.78 mm 0.00 W/m2
06:12 0.5 °C -0.1 °C 1010 hPa Calm     96% 1.52 mm 0.00 W/m2
06:17 0.5 °C -0.1 °C 1010 hPa Calm     96% 1.02 mm 0.00 W/m2
06:22 0.5 °C -0.1 °C 1010 hPa Calm     96% 0 mm 0.00 W/m2
06:27 0.5 °C -0.1 °C 1010 hPa Calm     96% 0 mm 0.00 W/m2
06:32 0.5 °C -0.1 °C 1010 hPa Calm     96% 0 mm 0.00 W/m2
06:37 0.5 °C -0.1 °C 1010 hPa Calm     96% 0 mm 0.00 W/m2
06:42 0.5 °C -0.1 °C 1010 hPa Calm     96% 0 mm 0.00 W/m2
06:47 0.5 °C -0.1 °C 1010.4 hPa Calm     96% 0 mm 0.00 W/m2
06:52 0.4 °C -0.1 °C 1010.4 hPa Calm     96% 0 mm 0.00 W/m2
06:58 0.5 °C -0.1 °C 1010.4 hPa Calm     96% 0 mm 0.00 W/m2
07:02 0.5 °C -0.1 °C 1010.4 hPa Calm     96% 0 mm 0.00 W/m2
07:08 0.5 °C -0.1 °C 1010.4 hPa Calm     96% 0 mm 0.00 W/m2
07:13 0.5 °C -0.1 °C 1010.7 hPa Calm     96% 0 mm 0.00 W/m2
07:18 0.5 °C -0.1 °C 1010.7 hPa Calm     96% 0 mm 0.00 W/m2
07:23 0.5 °C -0.1 °C 1010.7 hPa Calm     96% 0 mm 0.00 W/m2
07:28 0.5 °C -0.1 °C 1010.7 hPa Calm     96% 0 mm 0.00 W/m2
07:33 0.5 °C -0.1 °C 1010.7 hPa Calm     96% 0 mm 0.00 W/m2
07:38 0.5 °C -0.1 °C 1010.7 hPa Calm     96% 0 mm 0.00 W/m2
07:43 0.5 °C -0.1 °C 1010.7 hPa Calm     96% 0 mm 0.00 W/m2
07:48 0.5 °C -0.1 °C 1011.1 hPa Calm     96% 0 mm 0.00 W/m2
07:53 0.5 °C -0.1 °C 1011.1 hPa Calm     96% 0 mm 5.00 W/m2
07:58 0.5 °C -0.1 °C 1011.1 hPa Calm     96% 1.27 mm 5.00 W/m2
08:03 0.5 °C -0.1 °C 1011.4 hPa Calm     96% 1.27 mm 7.00 W/m2
08:08 0.6 °C 0 °C 1011.4 hPa Calm     96% 1.27 mm 11.00 W/m2
08:13 0.5 °C -0.1 °C 1011.4 hPa Calm     96% 1.02 mm 12.00 W/m2
08:18 0.5 °C -0.1 °C 1011.4 hPa Calm     96% 0 mm 14.00 W/m2
08:23 0.5 °C -0.1 °C 1011.7 hPa Calm     96% 0 mm 14.00 W/m2
08:28 0.5 °C -0.1 °C 1011.7 hPa Calm     96% 0 mm 14.00 W/m2
08:33 0.5 °C -0.1 °C 1011.7 hPa Calm     96% 0 mm 16.00 W/m2
08:38 0.5 °C -0.1 °C 1011.7 hPa Calm     96% 0 mm 18.00 W/m2
08:43 0.5 °C -0.1 °C 1011.7 hPa Calm     96% 0 mm 21.00 W/m2
08:48 0.5 °C -0.1 °C 1012.1 hPa Calm     96% 0 mm 23.00 W/m2
08:53 0.6 °C 0 °C 1012.1 hPa Calm     96% 0 mm 30.00 W/m2
08:58 0.6 °C 0 °C 1012.1 hPa Calm     96% 0 mm 33.00 W/m2
09:03 0.6 °C 0 °C 1012.1 hPa Calm     96% 0 mm 42.00 W/m2
09:08 0.6 °C 0 °C 1012.1 hPa Calm     96% 0 mm 46.00 W/m2
09:13 0.6 °C 0 °C 1012.1 hPa Calm     96% 0 mm 46.00 W/m2
09:18 0.6 °C 0 °C 1012.1 hPa Calm     96% 0 mm 40.00 W/m2
09:23 0.6 °C 0.1 °C 1012.4 hPa Calm     96% 0 mm 49.00 W/m2
09:28 0.6 °C 0.1 °C 1012.4 hPa Calm     96% 0 mm 58.00 W/m2
09:33 0.6 °C 0.1 °C 1012.4 hPa Calm     96% 0 mm 62.00 W/m2
09:38 0.6 °C 0.1 °C 1012.4 hPa Calm     96% 0 mm 58.00 W/m2
09:43 0.7 °C 0.1 °C 1012.8 hPa Calm     96% 0 mm 54.00 W/m2
09:48 0.7 °C 0.1 °C 1012.8 hPa Calm     96% 0 mm 53.00 W/m2
09:53 0.7 °C 0.1 °C 1012.8 hPa Calm     96% 0 mm 51.00 W/m2
09:58 0.7 °C 0.2 °C 1012.8 hPa Calm     96% 0 mm 56.00 W/m2
10:03 0.7 °C 0.2 °C 1013.1 hPa Calm     96% 0 mm 49.00 W/m2
10:08 0.7 °C 0.2 °C 1013.1 hPa Calm     96% 0 mm 58.00 W/m2
10:13 0.7 °C 0.2 °C 1013.1 hPa Calm     96% 0 mm 86.00 W/m2
10:19 0.7 °C 0.2 °C 1013.1 hPa Calm     96% 0 mm 100.00 W/m2
10:24 0.7 °C 0.2 °C 1013.1 hPa Calm     96% 0 mm 88.00 W/m2
10:29 0.8 °C 0.2 °C 1013.4 hPa Calm     96% 0 mm 81.00 W/m2
10:34 0.8 °C 0.2 °C 1013.4 hPa Calm     96% 0 mm 97.00 W/m2
10:39 0.8 °C 0.2 °C 1013.4 hPa Calm     96% 0 mm 84.00 W/m2
10:44 0.8 °C 0.3 °C 1013.4 hPa Calm     96% 0 mm 121.00 W/m2
10:49 0.9 °C 0.3 °C 1013.4 hPa Calm     96% 0 mm 105.00 W/m2
10:54 0.9 °C 0.3 °C 1013.4 hPa Calm     96% 0 mm 105.00 W/m2
10:59 0.9 °C 0.4 °C 1013.4 hPa Calm     96% 0 mm 104.00 W/m2
11:04 1 °C 0.4 °C 1013.4 hPa Calm     96% 0 mm 109.00 W/m2
11:09 1 °C 0.4 °C 1013.4 hPa Calm     96% 0 mm 100.00 W/m2
11:14 1 °C 0.4 °C 1013.4 hPa Calm     96% 0 mm 90.00 W/m2
11:19 1.1 °C 0.5 °C 1013.4 hPa Calm     96% 0 mm 84.00 W/m2
11:24 1.1 °C 0.5 °C 1013.1 hPa Calm     96% 0 mm 65.00 W/m2
11:29 1.1 °C 0.5 °C 1013.4 hPa Calm     96% 0 mm 120.00 W/m2
11:34 1.1 °C 0.5 °C 1013.1 hPa Calm     96% 0 mm 199.00 W/m2
11:39 1.1 °C 0.6 °C 1013.1 hPa Calm     96% 0 mm 158.00 W/m2
11:44 1.2 °C 0.6 °C 1013.1 hPa Calm     96% 0 mm 125.00 W/m2
11:49 1.2 °C 0.7 °C 1013.1 hPa Calm     96% 0 mm 127.00 W/m2
11:54 1.2 °C 0.7 °C 1013.1 hPa Calm     96% 0 mm 230.00 W/m2
11:59 1.3 °C 0.7 °C 1013.1 hPa Calm     96% 0 mm 475.00 W/m2
12:04 1.4 °C 0.9 °C 1013.1 hPa Calm   8 km/h 96% 0 mm 429.00 W/m2
12:09 1.6 °C 1 °C 1013.1 hPa Calm   1.6 km/h 96% 0 mm 376.00 W/m2
12:14 1.6 °C 1 °C 1012.8 hPa Calm     96% 0 mm 267.00 W/m2
12:19 1.6 °C 1.1 °C 1013.1 hPa SSE 1.6 km/h 6.4 km/h 96% 0 mm 271.00 W/m2
12:24 1.7 °C 1.1 °C 1012.8 hPa Calm   6.4 km/h 96% 0 mm 230.00 W/m2
12:29 1.7 °C 1.2 °C 1012.8 hPa SSE 1.6 km/h 3.2 km/h 96% 0 mm 181.00 W/m2
12:34 1.8 °C 1.2 °C 1012.8 hPa Calm   3.2 km/h 96% 0 mm 146.00 W/m2
12:39 1.8 °C 1.2 °C 1012.8 hPa Calm   1.6 km/h 96% 0 mm 148.00 W/m2
12:44 1.8 °C 1.2 °C 1012.8 hPa Calm   1.6 km/h 96% 0 mm 178.00 W/m2
12:49 1.8 °C 1.3 °C 1012.8 hPa Calm   1.6 km/h 96% 0 mm 279.00 W/m2
12:54 1.8 °C 1.3 °C 1012.4 hPa Calm   1.6 km/h 96% 0 mm 186.00 W/m2
12:59 1.8 °C 1.3 °C 1012.4 hPa Calm     96% 0 mm 116.00 W/m2
13:04 1.8 °C 1.3 °C 1012.4 hPa Calm     96% 0 mm 95.00 W/m2
13:09 1.8 °C 1.3 °C 1012.4 hPa Calm     96% 0 mm 107.00 W/m2
13:14 1.8 °C 1.3 °C 1012.8 hPa Calm     96% 0 mm 83.00 W/m2
13:19 1.8 °C 1.2 °C 1012.8 hPa Calm     96% 0 mm 33.00 W/m2
13:24 1.7 °C 1.2 °C 1012.8 hPa Calm     96% 0 mm 35.00 W/m2
13:29 1.6 °C 1.1 °C 1012.4 hPa Calm     96% 1.78 mm 65.00 W/m2
13:34 1.4 °C 0.9 °C 1012.4 hPa Calm     96% 2.54 mm 153.00 W/m2
13:39 1.3 °C 0.7 °C 1012.8 hPa Calm     96% 3.56 mm 288.00 W/m2
13:44 1.2 °C 0.6 °C 1012.4 hPa Calm     96% 2.54 mm 380.00 W/m2
13:49 1.1 °C 0.6 °C 1012.4 hPa Calm   6.4 km/h 96% 1.78 mm 193.00 W/m2
13:55 1.2 °C 0.4 °C 1012.4 hPa South 1.6 km/h 17.7 km/h 95% 1.02 mm 260.00 W/m2
14:00 1.3 °C 0.7 °C 1012.4 hPa Calm   6.4 km/h 96% 0 mm 396.00 W/m2
14:05 1.4 °C 0.9 °C 1012.4 hPa Calm   3.2 km/h 96% 0 mm 236.00 W/m2
14:10 1.6 °C 1 °C 1012.8 hPa South 3.2 km/h 8 km/h 96% 0 mm 188.00 W/m2
14:15 1.7 °C 1.1 °C 1012.8 hPa South 3.2 km/h 6.4 km/h 96% 0 mm 137.00 W/m2
14:20 1.7 °C 1.2 °C 1012.8 hPa South 1.6 km/h 6.4 km/h 96% 0 mm 114.00 W/m2
14:25 1.7 °C 1.2 °C 1012.8 hPa Calm   17.7 km/h 96% 0 mm 167.00 W/m2
14:30 1.7 °C 1.2 °C 1012.8 hPa Calm   3.2 km/h 96% 0 mm 295.00 W/m2
14:35 1.8 °C 1.2 °C 1012.8 hPa Calm   3.2 km/h 96% 0 mm 322.00 W/m2
14:40 1.8 °C 1.3 °C 1012.8 hPa Calm   3.2 km/h 96% 0 mm 464.00 W/m2
14:45 1.8 °C 1.3 °C 1012.8 hPa Calm   6.4 km/h 96% 0 mm 350.00 W/m2
14:50 1.9 °C 1.4 °C 1012.8 hPa SE 1.6 km/h 6.4 km/h 96% 0 mm 165.00 W/m2
14:55 1.9 °C 1.4 °C 1012.8 hPa SE 3.2 km/h 3.2 km/h 96% 0 mm 86.00 W/m2
15:00 1.9 °C 1.4 °C 1012.8 hPa Calm   3.2 km/h 96% 0 mm 97.00 W/m2
15:05 1.9 °C 1.4 °C 1012.8 hPa Calm     96% 0 mm 86.00 W/m2
15:10 1.9 °C 1.4 °C 1012.8 hPa Calm     96% 0 mm 62.00 W/m2
15:15 1.9 °C 1.4 °C 1012.8 hPa Calm   1.6 km/h 96% 0 mm 47.00 W/m2
15:20 1.9 °C 1.3 °C 1012.8 hPa SE 3.2 km/h 3.2 km/h 96% 0 mm 37.00 W/m2
15:25 1.8 °C 1.3 °C 1012.8 hPa Calm   9.7 km/h 96% 0 mm 23.00 W/m2
15:30 1.8 °C 1.3 °C 1012.8 hPa SE 1.6 km/h 6.4 km/h 96% 0 mm 25.00 W/m2
15:35 1.8 °C 1.2 °C 1012.8 hPa Calm   6.4 km/h 96% 0 mm 32.00 W/m2
15:40 1.7 °C 1.2 °C 1012.8 hPa Calm   6.4 km/h 96% 0 mm 33.00 W/m2
15:45 1.7 °C 1.1 °C 1013.1 hPa Calm   6.4 km/h 96% 0 mm 28.00 W/m2
15:50 1.6 °C 1.1 °C 1013.1 hPa Calm   1.6 km/h 96% 0 mm 16.00 W/m2
15:55 1.6 °C 1 °C 1013.1 hPa Calm   3.2 km/h 96% 0 mm 9.00 W/m2
16:00 1.6 °C 1 °C 1013.1 hPa Calm     96% 0 mm 11.00 W/m2
16:05 1.4 °C 0.9 °C 1013.1 hPa Calm     96% 0 mm 11.00 W/m2
16:10 1.4 °C 0.8 °C 1013.1 hPa Calm     96% 2.54 mm 9.00 W/m2
16:15 1.3 °C 0.8 °C 1013.1 hPa Calm     96% 1.52 mm 5.00 W/m2
16:20 1.2 °C 0.7 °C 1013.1 hPa Calm     96% 1.02 mm 5.00 W/m2
16:25 1.2 °C 0.6 °C 1013.1 hPa Calm     96% 1.02 mm 0.00 W/m2
16:30 1.1 °C 0.5 °C 1013.4 hPa Calm     96% 2.03 mm 0.00 W/m2
16:35 0.9 °C 0.4 °C 1013.4 hPa Calm     96% 2.03 mm 0.00 W/m2
16:40 0.9 °C 0.3 °C 1013.4 hPa Calm     96% 1.27 mm 0.00 W/m2
16:45 0.8 °C 0.1 °C 1013.4 hPa Calm   8 km/h 95% 1.02 mm 0.00 W/m2
16:50 0.7 °C 0 °C 1013.4 hPa SE 1.6 km/h 6.4 km/h 95% 3.56 mm 0.00 W/m2
16:55 0.7 °C 0.2 °C 1013.4 hPa Calm     96% 5.33 mm 5.00 W/m2
17:00 0.7 °C 0.1 °C 1013.4 hPa Calm     96% 4.83 mm 0.00 W/m2
17:05 0.7 °C 0.1 °C 1013.4 hPa Calm     96% 5.33 mm 0.00 W/m2
17:10 0.6 °C 0.1 °C 1013.4 hPa Calm     96% 5.84 mm 0.00 W/m2
17:15 0.6 °C 0.1 °C 1013.4 hPa Calm     96% 4.83 mm 0.00 W/m2
17:20 0.6 °C 0 °C 1013.4 hPa Calm     96% 5.08 mm 0.00 W/m2
17:25 0.6 °C 0 °C 1013.4 hPa Calm     96% 3.05 mm 0.00 W/m2
17:30 0.6 °C 0 °C 1013.4 hPa Calm     96% 3.05 mm 0.00 W/m2
17:35 0.6 °C -0.2 °C 1013.8 hPa Calm     95% 2.54 mm 0.00 W/m2
17:40 0.6 °C -0.2 °C 1013.8 hPa Calm     95% 1.78 mm 0.00 W/m2
17:45 0.5 °C -0.2 °C 1013.8 hPa Calm     95% 1.78 mm 0.00 W/m2
17:50 0.5 °C -0.2 °C 1013.8 hPa Calm     95% 2.03 mm 0.00 W/m2
17:55 0.5 °C -0.2 °C 1013.8 hPa Calm     95% 1.78 mm 0.00 W/m2
18:00 0.5 °C -0.2 °C 1013.8 hPa Calm     95% 1.27 mm 0.00 W/m2
18:06 0.5 °C -0.2 °C 1013.8 hPa Calm     95% 1.27 mm 0.00 W/m2
18:11 0.5 °C -0.2 °C 1013.8 hPa Calm     95% 1.27 mm 0.00 W/m2
18:16 0.5 °C -0.2 °C 1013.8 hPa Calm     95% 1.02 mm 0.00 W/m2
18:21 0.5 °C -0.2 °C 1013.8 hPa Calm     95% 0 mm 0.00 W/m2
18:26 0.5 °C -0.2 °C 1014.1 hPa Calm     95% 0 mm 0.00 W/m2
18:31 0.5 °C -0.2 °C 1014.1 hPa Calm     95% 0 mm 0.00 W/m2
18:36 0.5 °C -0.2 °C 1014.1 hPa Calm     95% 0 mm 0.00 W/m2
18:41 0.5 °C -0.2 °C 1014.1 hPa Calm     95% 0 mm 0.00 W/m2
18:46 0.5 °C -0.2 °C 1014.4 hPa Calm     95% 0 mm 0.00 W/m2
18:51 0.5 °C -0.2 °C 1014.4 hPa Calm     95% 1.27 mm 0.00 W/m2
18:56 0.5 °C -0.2 °C 1014.4 hPa Calm     95% 1.27 mm 0.00 W/m2
19:01 0.5 °C -0.2 °C 1014.4 hPa Calm     95% 1.27 mm 0.00 W/m2
19:06 0.5 °C -0.1 °C 1014.4 hPa Calm     96% 1.02 mm 0.00 W/m2
19:11 0.5 °C -0.2 °C 1014.4 hPa Calm     95% 0 mm 0.00 W/m2
19:16 0.5 °C -0.2 °C 1014.4 hPa SE 1.6 km/h 12.9 km/h 95% 0 mm 0.00 W/m2
19:21 0.5 °C -0.2 °C 1014.8 hPa Calm   3.2 km/h 95% 0 mm 0.00 W/m2
19:26 0.5 °C -0.1 °C 1014.4 hPa Calm   6.4 km/h 96% 0 mm 0.00 W/m2
19:31 0.5 °C -0.1 °C 1014.8 hPa Calm   3.2 km/h 96% 0 mm 0.00 W/m2
19:36 0.5 °C -0.2 °C 1014.8 hPa Calm   3.2 km/h 95% 0 mm 0.00 W/m2
19:41 0.5 °C -0.1 °C 1014.8 hPa SE 1.6 km/h 3.2 km/h 96% 0 mm 0.00 W/m2
19:46 0.5 °C -0.1 °C 1014.8 hPa Calm   6.4 km/h 96% 0 mm 0.00 W/m2
19:51 0.5 °C -0.1 °C 1014.8 hPa Calm     96% 0 mm 0.00 W/m2
19:56 0.5 °C -0.1 °C 1014.8 hPa SE 3.2 km/h 3.2 km/h 96% 0 mm 0.00 W/m2
20:01 0.4 °C -0.1 °C 1014.8 hPa SE 6.4 km/h 8 km/h 96% 0 mm 0.00 W/m2
20:06 0.4 °C -0.1 °C 1014.8 hPa SE 6.4 km/h 8 km/h 96% 0 mm 0.00 W/m2
20:11 0.4 °C -0.1 °C 1014.8 hPa Calm     96% 0 mm 0.00 W/m2
20:16 0.4 °C -0.1 °C 1014.8 hPa SE 6.4 km/h 6.4 km/h 96% 0 mm 0.00 W/m2
20:21 0.4 °C -0.1 °C 1015.1 hPa SE 11.3 km/h 11.3 km/h 96% 0 mm 0.00 W/m2
20:26 0.4 °C -0.1 °C 1015.1 hPa Calm     96% 0 mm 0.00 W/m2
20:31 0.4 °C -0.1 °C 1015.1 hPa Calm   9.7 km/h 96% 0 mm 0.00 W/m2
20:36 0.4 °C -0.2 °C 1015.1 hPa Calm   8 km/h 96% 0 mm 0.00 W/m2
20:41 0.4 °C -0.2 °C 1015.1 hPa Calm   11.3 km/h 96% 0 mm 0.00 W/m2
20:46 0.4 °C -0.2 °C 1015.1 hPa Calm     96% 0 mm 0.00 W/m2
20:51 0.4 °C -0.2 °C 1015.1 hPa Calm     96% 0 mm 0.00 W/m2
20:56 0.4 °C -0.2 °C 1015.1 hPa Calm     96% 0 mm 0.00 W/m2
21:01 0.4 °C -0.2 °C 1015.5 hPa Calm     96% 0 mm 0.00 W/m2
21:06 0.4 °C -0.2 °C 1015.5 hPa Calm     96% 0 mm 0.00 W/m2
21:11 0.4 °C -0.1 °C 1015.5 hPa Calm     96% 0 mm 0.00 W/m2
21:16 0.4 °C -0.1 °C 1015.5 hPa Calm     96% 0 mm 0.00 W/m2
21:21 0.4 °C -0.1 °C 1015.5 hPa Calm     96% 0 mm 0.00 W/m2
21:26 0.4 °C -0.1 °C 1015.5 hPa Calm     96% 0 mm 0.00 W/m2
21:31 0.4 °C -0.1 °C 1015.5 hPa Calm     96% 0 mm 0.00 W/m2
21:36 0.4 °C -0.1 °C 1015.5 hPa Calm     96% 0 mm 0.00 W/m2
21:41 0.4 °C -0.1 °C 1015.5 hPa Calm     96% 0 mm 0.00 W/m2
21:46 0.4 °C -0.1 °C 1015.5 hPa Calm     96% 0 mm 0.00 W/m2
21:51 0.4 °C -0.1 °C 1015.5 hPa Calm     96% 0 mm 0.00 W/m2
21:56 0.4 °C -0.1 °C 1015.5 hPa Calm     96% 0 mm 0.00 W/m2
22:01 0.4 °C -0.1 °C 1015.5 hPa Calm     96% 0 mm 0.00 W/m2
22:06 0.4 °C -0.1 °C 1015.5 hPa Calm     96% 0 mm 0.00 W/m2
22:11 0.4 °C -0.1 °C 1015.5 hPa Calm     96% 0 mm 0.00 W/m2
22:16 0.4 °C -0.1 °C 1015.5 hPa Calm     96% 0 mm 0.00 W/m2
22:21 0.4 °C -0.1 °C 1015.8 hPa Calm     96% 0 mm 0.00 W/m2
22:26 0.4 °C -0.1 °C 1015.8 hPa Calm     96% 0 mm 0.00 W/m2
22:31 0.4 °C -0.1 °C 1015.8 hPa Calm     96% 0 mm 0.00 W/m2
22:36 0.4 °C -0.1 °C 1015.8 hPa Calm     96% 0 mm 0.00 W/m2
22:41 0.4 °C -0.1 °C 1015.8 hPa Calm     96% 0 mm 0.00 W/m2
22:46 0.4 °C -0.1 °C 1015.8 hPa Calm     96% 0 mm 0.00 W/m2
22:51 0.4 °C -0.1 °C 1015.8 hPa Calm     96% 0 mm 0.00 W/m2
22:56 0.4 °C -0.1 °C 1015.8 hPa Calm     96% 0 mm 0.00 W/m2
23:01 0.4 °C -0.1 °C 1015.8 hPa Calm     96% 0 mm 0.00 W/m2
23:07 0.4 °C -0.1 °C 1015.8 hPa Calm     96% 0 mm 0.00 W/m2
23:12 0.4 °C -0.1 °C 1015.8 hPa Calm     96% 0 mm 0.00 W/m2
23:17 0.4 °C -0.1 °C 1015.8 hPa Calm     96% 0 mm 0.00 W/m2
23:22 0.4 °C -0.1 °C 1015.8 hPa Calm     96% 0 mm 0.00 W/m2
23:27 0.4 °C -0.1 °C 1015.8 hPa Calm     96% 0 mm 0.00 W/m2
23:32 0.4 °C -0.1 °C 1015.8 hPa Calm     96% 0 mm 0.00 W/m2
23:37 0.4 °C -0.1 °C 1015.8 hPa Calm     96% 0 mm 0.00 W/m2
23:42 0.4 °C -0.1 °C 1015.8 hPa Calm     96% 0 mm 0.00 W/m2
23:47 0.4 °C -0.1 °C 1015.8 hPa Calm     96% 0 mm 0.00 W/m2
23:52 0.4 °C -0.1 °C 1015.8 hPa Calm     96% 0 mm 0.00 W/m2
23:57 0.4 °C -0.1 °C 1015.8 hPa Calm     96% 0 mm 0.00 W/m2
Foresthill Weather
 WU-history PHP script courtesy of   Juneau County Weather.
powered by Cumulus v1.9.3 (1059)
Ambient Weather VWS v14.00
Top Contact Website Map Copyright © 2007 - 2018 Foresthillweather.com Never base important decisions on this or any weather information obtained from the Internet